Time,TemperatureF,DewpointF,PressureIn,WindDirection,WindDirectionDegrees,WindSpeedMPH,WindSpeedGustMPH,Humidity,HourlyPrecipIn,Conditions,Clouds,dailyrainin,SolarRadiationWatts/m^2,SoftwareType,DateUTC
2013-06-27 00:02:00,64.0,64.0,-100.00,West,278,1.0,5.0,99,0.00,,,-99.99,0.000000,,2013-06-27 05:02:00,
2013-06-27 00:12:00,64.0,64.0,-100.00,SSW,210,4.0,6.0,99,0.00,,,0.61,0.000000,,2013-06-27 05:12:00,
2013-06-27 00:32:00,64.0,64.0,-100.00,SSW,210,4.0,6.0,99,0.00,,,0.61,0.000000,,2013-06-27 05:32:00,
2013-06-27 00:42:00,64.0,64.0,-100.00,SSW,210,4.0,6.0,99,0.00,,,0.61,0.000000,,2013-06-27 05:42:00,
2013-06-27 00:53:00,64.0,64.0,-100.00,SSW,210,4.0,6.0,99,0.00,,,0.61,0.000000,,2013-06-27 05:53:00,
2013-06-27 01:01:00,64.0,64.0,-100.00,SSW,210,4.0,6.0,99,0.00,,,0.61,0.000000,,2013-06-27 06:01:00,
2013-06-27 01:12:00,64.0,64.0,-100.00,WSW,255,4.0,7.0,99,0.00,,,-99.99,0.000000,,2013-06-27 06:12:00,
2013-06-27 01:43:00,64.0,64.0,-100.00,WSW,255,4.0,7.0,99,0.00,,,-99.99,0.000000,,2013-06-27 06:43:00,
2013-06-27 01:53:00,64.0,64.0,-100.00,WSW,255,4.0,7.0,99,0.00,,,-99.99,0.000000,,2013-06-27 06:53:00,
2013-06-27 02:02:00,64.0,64.0,-100.00,WSW,255,4.0,7.0,99,0.00,,,-99.99,0.000000,,2013-06-27 07:02:00,
2013-06-27 02:43:00,64.0,64.0,-100.00,West,278,2.0,5.0,99,0.01,,,0.62,0.000000,,2013-06-27 07:43:00,
2013-06-27 02:52:00,64.0,64.0,-100.00,West,278,2.0,5.0,99,0.01,,,0.62,0.000000,,2013-06-27 07:52:00,
2013-06-27 03:01:00,64.0,64.0,-100.00,West,278,2.0,5.0,99,0.01,,,0.62,0.000000,,2013-06-27 08:01:00,
2013-06-27 03:11:00,64.0,64.0,-100.00,West,278,2.0,5.0,99,0.01,,,0.62,0.000000,,2013-06-27 08:11:00,
2013-06-27 03:44:00,63.0,63.0,-100.00,WSW,247,4.0,7.0,99,0.00,,,0.62,0.000000,,2013-06-27 08:44:00,
2013-06-27 03:52:00,63.0,63.0,-100.00,WSW,247,4.0,7.0,99,0.00,,,0.62,0.000000,,2013-06-27 08:52:00,
2013-06-27 04:02:00,63.0,63.0,-100.00,WSW,247,4.0,7.0,99,0.00,,,0.62,0.000000,,2013-06-27 09:02:00,
2013-06-27 04:11:00,63.0,63.0,-100.00,WSW,247,4.0,7.0,99,0.00,,,0.62,0.000000,,2013-06-27 09:11:00,
2013-06-27 04:43:00,62.0,62.0,-100.00,West,266,2.0,5.0,99,0.00,,,-99.99,0.000000,,2013-06-27 09:43:00,
2013-06-27 04:53:00,62.0,62.0,-100.00,West,266,2.0,5.0,99,0.00,,,-99.99,0.000000,,2013-06-27 09:53:00,
2013-06-27 05:01:00,62.0,62.0,-100.00,West,266,2.0,5.0,99,0.00,,,-99.99,0.000000,,2013-06-27 10:01:00,
2013-06-27 05:11:00,62.0,62.0,-100.00,West,266,2.0,5.0,99,0.00,,,-99.99,0.000000,,2013-06-27 10:11:00,
2013-06-27 05:44:00,62.0,62.0,-100.00,West,268,3.0,5.0,99,0.00,,,0.62,0.000000,,2013-06-27 10:44:00,
2013-06-27 05:54:00,62.0,62.0,-100.00,West,268,3.0,5.0,99,0.00,,,0.62,0.000000,,2013-06-27 10:54:00,
2013-06-27 06:02:00,62.0,62.0,-100.00,West,268,3.0,5.0,99,0.00,,,0.62,0.000000,,2013-06-27 11:02:00,
2013-06-27 06:11:00,62.0,62.0,-100.00,West,268,3.0,5.0,99,0.00,,,0.62,0.000000,,2013-06-27 11:11:00,
2013-06-27 06:33:00,63.0,63.0,-100.00,WNW,283,3.0,5.0,99,0.00,,,0.62,11.000000,,2013-06-27 11:33:00,
2013-06-27 06:43:00,63.0,63.0,-100.00,WNW,283,3.0,5.0,99,0.00,,,0.62,11.000000,,2013-06-27 11:43:00,
2013-06-27 06:52:00,63.0,63.0,-100.00,WNW,283,3.0,5.0,99,0.00,,,0.62,11.000000,,2013-06-27 11:52:00,
2013-06-27 07:02:00,63.0,63.0,-100.00,WNW,283,3.0,5.0,99,0.00,,,0.62,11.000000,,2013-06-27 12:02:00,
2013-06-27 07:11:00,63.0,63.0,-100.00,WNW,283,3.0,5.0,99,0.00,,,0.62,11.000000,,2013-06-27 12:11:00,
2013-06-27 07:42:00,67.0,64.0,-100.00,WSW,242,4.0,6.0,91,0.00,,,0.62,175.000000,,2013-06-27 12:42:00,
2013-06-27 08:01:00,67.0,64.0,-100.00,WSW,242,4.0,6.0,91,0.00,,,0.62,175.000000,,2013-06-27 13:01:00,
2013-06-27 08:11:00,67.0,64.0,-100.00,WSW,242,4.0,6.0,91,0.00,,,0.62,175.000000,,2013-06-27 13:11:00,
2013-06-27 08:34:00,70.0,65.0,-100.00,WNW,283,4.0,8.0,85,0.00,,,0.62,329.000000,,2013-06-27 13:34:00,
2013-06-27 08:43:00,70.0,65.0,-100.00,WNW,283,4.0,8.0,85,0.00,,,0.62,329.000000,,2013-06-27 13:43:00,
2013-06-27 08:52:00,70.0,65.0,-100.00,WNW,283,4.0,8.0,85,0.00,,,0.62,329.000000,,2013-06-27 13:52:00,
2013-06-27 09:02:00,70.0,65.0,-100.00,WNW,283,4.0,8.0,85,0.00,,,0.62,329.000000,,2013-06-27 14:02:00,
2013-06-27 09:11:00,70.0,65.0,-100.00,WNW,283,4.0,8.0,85,0.00,,,0.62,329.000000,,2013-06-27 14:11:00,
2013-06-27 09:12:00,77.0,69.0,-100.00,NNW,327,3.0,8.0,77,0.00,,,0.62,569.000000,,2013-06-27 14:12:00,
2013-06-27 09:43:00,77.0,69.0,-100.00,NNW,327,3.0,8.0,77,0.00,,,0.62,569.000000,,2013-06-27 14:43:00,
2013-06-27 10:01:00,77.0,69.0,-100.00,NNW,327,3.0,8.0,77,0.00,,,0.62,569.000000,,2013-06-27 15:01:00,
2013-06-27 11:11:00,80.0,70.0,-100.00,NNW,329,4.0,11.0,71,0.00,,,0.62,698.000000,,2013-06-27 16:11:00,
2013-06-27 12:43:00,83.0,67.0,-100.00,NW,310,4.0,10.0,59,-99.99,,,0.62,780.000000,,2013-06-27 17:43:00,
2013-06-27 12:53:00,83.0,67.0,-100.00,NW,310,4.0,10.0,59,-99.99,,,0.62,780.000000,,2013-06-27 17:53:00,
2013-06-27 13:01:00,83.0,67.0,-100.00,NW,310,4.0,10.0,59,-99.99,,,0.62,780.000000,,2013-06-27 18:01:00,
2013-06-27 13:11:00,83.0,67.0,-100.00,NW,310,4.0,10.0,59,-99.99,,,0.62,780.000000,,2013-06-27 18:11:00,
2013-06-27 13:44:00,82.0,64.0,-100.00,NW,312,5.0,10.0,55,0.00,,,0.62,816.000000,,2013-06-27 18:44:00,
2013-06-27 13:52:00,82.0,64.0,-100.00,NW,312,5.0,10.0,55,0.00,,,0.62,816.000000,,2013-06-27 18:52:00,
2013-06-27 14:01:00,82.0,64.0,-100.00,NW,312,5.0,10.0,55,0.00,,,0.62,816.000000,,2013-06-27 19:01:00,
2013-06-27 14:11:00,82.0,64.0,-100.00,NW,312,5.0,10.0,55,0.00,,,0.62,816.000000,,2013-06-27 19:11:00,
2013-06-27 16:12:00,74.0,59.0,-100.00,SE,136,7.0,16.0,59,-99.99,,,0.62,261.000000,,2013-06-27 21:12:00,
2013-06-27 16:49:00,74.0,59.0,-100.00,SE,136,7.0,16.0,59,-99.99,,,0.62,261.000000,,2013-06-27 21:49:00,
2013-06-27 16:56:00,74.0,59.0,-100.00,SE,136,7.0,16.0,59,-99.99,,,0.62,261.000000,,2013-06-27 21:56:00,
2013-06-27 17:06:00,74.0,59.0,-100.00,SE,136,7.0,16.0,59,-99.99,,,0.62,261.000000,,2013-06-27 22:06:00,
2013-06-27 17:12:00,70.0,62.0,-100.00,SE,137,7.0,17.0,75,0.00,,,0.62,539.000000,,2013-06-27 22:12:00,
2013-06-27 17:49:00,70.0,62.0,-100.00,SE,137,7.0,17.0,75,0.00,,,0.62,539.000000,,2013-06-27 22:49:00,
2013-06-27 17:58:00,70.0,62.0,-100.00,SE,137,7.0,17.0,75,0.00,,,0.62,539.000000,,2013-06-27 22:58:00,
2013-06-27 18:05:00,70.0,62.0,-100.00,SE,137,7.0,17.0,75,0.00,,,0.62,539.000000,,2013-06-27 23:05:00,
2013-06-27 18:12:00,65.0,63.0,-100.00,SSE,168,3.0,17.0,94,0.18,,,0.80,52.000000,,2013-06-27 23:12:00,
2013-06-27 18:36:00,65.0,63.0,-100.00,SSE,168,3.0,17.0,94,0.18,,,0.80,52.000000,,2013-06-27 23:36:00,
2013-06-27 18:48:00,65.0,63.0,-100.00,SSE,168,3.0,17.0,94,0.18,,,0.80,52.000000,,2013-06-27 23:48:00,
2013-06-27 18:58:00,65.0,63.0,-100.00,SSE,168,3.0,17.0,94,0.18,,,0.80,52.000000,,2013-06-27 23:58:00,
2013-06-27 19:07:00,65.0,63.0,-100.00,SSE,168,3.0,17.0,94,0.18,,,0.80,52.000000,,2013-06-28 00:07:00,
2013-06-27 19:12:00,64.0,63.0,-100.00,ENE,62,6.0,10.0,96,0.00,,,0.80,77.000000,,2013-06-28 00:12:00,
2013-06-27 19:46:00,64.0,63.0,-100.00,ENE,62,6.0,10.0,96,0.00,,,0.80,77.000000,,2013-06-28 00:46:00,
2013-06-27 19:56:00,64.0,63.0,-100.00,ENE,62,6.0,10.0,96,0.00,,,0.80,77.000000,,2013-06-28 00:56:00,
2013-06-27 20:37:00,63.0,62.0,-100.00,NNE,22,3.0,9.0,97,0.01,,,0.46,9.000000,,2013-06-28 01:37:00,
2013-06-27 20:49:00,63.0,62.0,-100.00,NNE,22,3.0,9.0,97,0.01,,,0.46,9.000000,,2013-06-28 01:49:00,
2013-06-27 20:57:00,63.0,62.0,-100.00,NNE,22,3.0,9.0,97,0.01,,,0.46,9.000000,,2013-06-28 01:57:00,
2013-06-27 21:06:00,63.0,62.0,-100.00,NNE,22,3.0,9.0,97,0.01,,,0.46,9.000000,,2013-06-28 02:06:00,
2013-06-27 21:12:00,62.0,61.0,-100.00,WSW,239,1.0,9.0,97,0.06,,,0.40,5.000000,,2013-06-28 02:12:00,
2013-06-27 21:50:00,62.0,61.0,-100.00,WSW,239,1.0,9.0,97,0.06,,,0.40,5.000000,,2013-06-28 02:50:00,
2013-06-27 21:58:00,62.0,61.0,-100.00,WSW,239,1.0,9.0,97,0.06,,,0.40,5.000000,,2013-06-28 02:58:00,
2013-06-27 22:07:00,62.0,61.0,-100.00,WSW,239,1.0,9.0,97,0.06,,,0.40,5.000000,,2013-06-28 03:07:00,
2013-06-27 22:12:00,62.0,61.0,-100.00,SW,233,4.0,13.0,98,0.00,,,0.26,0.000000,,2013-06-28 03:12:00,
2013-06-27 22:46:00,62.0,61.0,-100.00,SW,233,4.0,13.0,98,0.00,,,0.26,0.000000,,2013-06-28 03:46:00,
2013-06-27 22:56:00,62.0,61.0,-100.00,SW,233,4.0,13.0,98,0.00,,,0.26,0.000000,,2013-06-28 03:56:00,
2013-06-27 23:02:00,62.0,61.0,-100.00,SW,233,4.0,13.0,98,0.00,,,0.26,0.000000,,2013-06-28 04:02:00,
2013-06-27 23:43:00,61.0,60.0,-100.00,WNW,296,2.0,7.0,98,0.01,,,0.27,0.000000,,2013-06-28 04:43:00,
2013-06-27 23:53:00,61.0,60.0,-100.00,WNW,296,2.0,7.0,98,0.01,,,0.27,0.000000,,2013-06-28 04:53:00,